| time (UTC) | temp F | wind direction | speed MPH | gust MPH | rain 1hr in | rain 24hr in | rain mn in | humidity % | barometer mb |
| 20260504213900 | 75 | 259 | 3.0 | 8.0 | 0.00 | 0.00 | 0.00 | 44 | 1009.1 |
| 20260504213134 | 76 | 274 | 3.0 | 5.0 | 0.00 | 0.00 | 0.00 | 42 | 1009.2 |
| 20260504212630 | 76 | 299 | 3.0 | 5.0 | 0.00 | 0.00 | 0.00 | 41 | 1009.3 |
| 20260504212129 | 75 | 285 | 3.0 | 5.0 | 0.00 | 0.00 | 0.00 | 47 | 1009.3 |
| 20260504211629 | 74 | 280 | 3.0 | 7.0 | 0.00 | 0.00 | 0.00 | 46 | 1009.3 |
| 20260504211129 | 74 | 285 | 4.0 | 8.0 | 0.00 | 0.00 | 0.00 | 43 | 1009.3 |
| 20260504210630 | 75 | 312 | 4.0 | 8.0 | 0.00 | 0.00 | 0.00 | 46 | 1009.5 |
| 20260504210129 | 75 | 265 | 3.0 | 8.0 | 0.00 | 0.00 | 0.00 | 46 | 1009.5 |
| 20260504205631 | 75 | 285 | 3.0 | 8.0 | 0.00 | 0.00 | 0.00 | 44 | 1009.4 |
| 20260504205130 | 75 | 230 | 3.0 | 7.0 | 0.00 | 0.00 | 0.00 | 44 | 1009.5 |
| 20260504204623 | 74 | 319 | 3.0 | 5.0 | 0.00 | 0.00 | 0.00 | 46 | 1009.5 |
| 20260504204116 | 74 | 312 | 3.0 | 5.0 | 0.00 | 0.00 | 0.00 | 47 | 1009.6 |
| 20260504203610 | 74 | 306 | 3.0 | 5.0 | 0.00 | 0.00 | 0.00 | 48 | 1009.5 |
| 20260504203105 | 74 | 321 | 3.0 | 5.0 | 0.00 | 0.00 | 0.00 | 48 | 1009.6 |
| 20260504202605 | 75 | 315 | 3.0 | 5.0 | 0.00 | 0.00 | 0.00 | 46 | 1009.5 |
| 20260504202335 | 76 | 311 | 3.0 | 5.0 | 0.00 | 0.00 | 0.00 | 45 | 1009.5 |
| 20260504201605 | 75 | 314 | 3.0 | 5.0 | 0.00 | 0.00 | 0.00 | 47 | 1009.6 |
| 20260504201103 | 75 | 330 | 3.0 | 5.0 | 0.00 | 0.00 | 0.00 | 45 | 1009.7 |
| 20260504200604 | 75 | 314 | 4.0 | 5.0 | 0.00 | 0.00 | 0.00 | 48 | 1009.7 |
| 20260504200104 | 75 | 322 | 3.0 | 5.0 | 0.00 | 0.00 | 0.00 | 47 | 1009.7 |
| 20260504195602 | 75 | 308 | 3.0 | 5.0 | 0.00 | 0.00 | 0.00 | 46 | 1009.7 |
| 20260504195103 | 73 | 278 | 2.0 | 5.0 | 0.00 | 0.00 | 0.00 | 48 | 1009.6 |
| 20260504194104 | 74 | 333 | 3.0 | 5.0 | 0.00 | 0.00 | 0.00 | 48 | 1009.5 |
| 20260504193604 | 74 | 320 | 3.0 | 4.0 | 0.00 | 0.00 | 0.00 | 52 | 1009.6 |
| 20260504193325 | 73 | 307 | 2.0 | 4.0 | 0.00 | 0.00 | 0.00 | 49 | 1009.5 |
| 20260504192829 | 74 | 321 | 2.0 | 5.0 | 0.00 | 0.00 | 0.00 | 51 | 1009.5 |
| 20260504192101 | 73 | 305 | 2.0 | 5.0 | 0.00 | 0.00 | 0.00 | 52 | 1009.5 |
| 20260504191601 | 73 | 320 | 2.0 | 4.0 | 0.00 | 0.00 | 0.00 | 51 | 1009.6 |
| 20260504191101 | 72 | 316 | 2.0 | 4.0 | 0.00 | 0.00 | 0.00 | 53 | 1009.6 |
| 20260504190827 | 72 | 312 | 2.0 | 4.0 | 0.00 | 0.00 | 0.00 | 52 | 1009.7 |
| 20260504190059 | 72 | 314 | 2.0 | 4.0 | 0.00 | 0.00 | 0.00 | 50 | 1009.7 |
| 20260504185553 | 72 | 326 | 2.0 | 4.0 | 0.00 | 0.00 | 0.00 | 53 | 1009.8 |
| 20260504185047 | 71 | 321 | 2.0 | 4.0 | 0.00 | 0.00 | 0.00 | 53 | 1009.8 |
| 20260504184547 | 71 | 319 | 2.0 | 4.0 | 0.00 | 0.00 | 0.00 | 57 | 1009.7 |
| 20260504184044 | 70 | 322 | 2.0 | 4.0 | 0.00 | 0.00 | 0.00 | 57 | 1009.7 |
| 20260504183543 | 69 | 319 | 2.0 | 4.0 | 0.00 | 0.00 | 0.00 | 55 | 1009.6 |
| 20260504183044 | 70 | 332 | 2.0 | 4.0 | 0.00 | 0.00 | 0.00 | 55 | 1009.7 |
| 20260504182541 | 70 | 333 | 2.0 | 4.0 | 0.00 | 0.00 | 0.00 | 57 | 1009.7 |
| 20260504182041 | 69 | 318 | 2.0 | 4.0 | 0.00 | 0.00 | 0.00 | 58 | 1009.8 |
| 20260504181539 | 69 | 317 | 2.0 | 4.0 | 0.00 | 0.00 | 0.00 | 58 | 1009.7 |
| 20260504181039 | 70 | 309 | 2.0 | 3.0 | 0.00 | 0.00 | 0.00 | 57 | 1009.6 |
| 20260504180539 | 69 | 308 | 2.0 | 3.0 | 0.00 | 0.00 | 0.00 | 58 | 1009.6 |
| 20260504180039 | 69 | 295 | 2.0 | 3.0 | 0.00 | 0.00 | 0.00 | 58 | 1009.7 |
| 20260504175808 | 68 | 302 | 2.0 | 4.0 | 0.00 | 0.00 | 0.00 | 61 | 1009.7 |
| 20260504175038 | 68 | 306 | 2.0 | 4.0 | 0.00 | 0.00 | 0.00 | 60 | 1009.7 |
| 20260504174535 | 69 | 13 | 2.0 | 4.0 | 0.00 | 0.00 | 0.00 | 59 | 1009.6 |
| 20260504174035 | 68 | 18 | 2.0 | 4.0 | 0.00 | 0.00 | 0.00 | 62 | 1009.6 |
| 20260504173535 | 68 | 15 | 2.0 | 4.0 | 0.00 | 0.00 | 0.00 | 63 | 1009.7 |
| 20260504173032 | 68 | 10 | 2.0 | 4.0 | 0.00 | 0.00 | 0.00 | 62 | 1009.7 |
| 20260504172531 | 67 | 20 | 2.0 | 5.0 | 0.00 | 0.00 | 0.00 | 63 | 1009.7 |
| 20260504172031 | 67 | 355 | 3.0 | 6.0 | 0.00 | 0.00 | 0.00 | 62 | 1009.7 |
| 20260504171031 | 68 | 60 | 2.0 | 6.0 | 0.00 | 0.00 | 0.00 | 63 | 1009.7 |
| 20260504170257 | 68 | 99 | 2.0 | 7.0 | 0.00 | 0.00 | 0.00 | 62 | 1009.6 |
| 20260504151008 | 61 | 13 | 2.0 | 3.0 | 0.00 | 0.00 | 0.00 | 76 | 1009.6 |
| 20260504150506 | 60 | 11 | 2.0 | 4.0 | 0.00 | 0.00 | 0.00 | 76 | 1009.5 |
| 20260504141232 | 59 | 91 | 2.0 | 6.0 | 0.00 | 0.00 | 0.00 | 73 | 1009.0 |
| 20260504140502 | 59 | 103 | 2.0 | 4.0 | 0.00 | 0.00 | 0.00 | 75 | 1009.0 |
| 20260504130501 | 59 | 153 | 1.0 | 4.0 | 0.00 | 0.00 | 0.00 | 76 | 1008.9 |
| 20260504110653 | 62 | 89 | 0.0 | 2.0 | 0.00 | 0.00 | 0.00 | 62 | 1008.8 |
| 20260504081905 | 72 | 241 | 3.0 | 7.0 | 0.00 | 0.00 | 0.00 | 37 | 1008.6 |
| 20260504081403 | 72 | 175 | 3.0 | 7.0 | 0.00 | 0.00 | 0.00 | 36 | 1008.6 |
| 20260504080911 | 72 | 234 | 3.0 | 6.0 | 0.00 | 0.00 | 0.00 | 37 | 1008.6 |
| 20260504080416 | 72 | 237 | 3.0 | 7.0 | 0.00 | 0.00 | 0.00 | 37 | 1008.7 |
| 20260504080137 | 71 | 186 | 2.0 | 7.0 | 0.00 | 0.00 | 0.00 | 37 | 1008.7 |
| 20260504070336 | 72 | 157 | 2.0 | 5.0 | 0.00 | 0.00 | 0.00 | 33 | 1008.6 |
| 20260504050307 | 73 | 130 | 2.0 | 7.0 | 0.00 | 0.00 | 0.00 | 32 | 1008.6 |
| 20260504045804 | 73 | 139 | 1.0 | 5.0 | 0.00 | 0.00 | 0.00 | 31 | 1008.7 |
| 20260504044804 | 72 | 182 | 3.0 | 5.0 | 0.00 | 0.00 | 0.00 | 33 | 1008.7 |
| 20260504044304 | 71 | 171 | 3.0 | 5.0 | 0.00 | 0.00 | 0.00 | 35 | 1008.7 |
| 20260504043804 | 72 | 176 | 2.0 | 5.0 | 0.00 | 0.00 | 0.00 | 34 | 1008.7 |
| 20260504042801 | 72 | 161 | 2.0 | 6.0 | 0.00 | 0.00 | 0.00 | 32 | 1008.7 |
| 20260504042304 | 72 | 153 | 2.0 | 4.0 | 0.00 | 0.00 | 0.00 | 34 | 1008.8 |
| 20260504041802 | 72 | 132 | 1.0 | 4.0 | 0.00 | 0.00 | 0.00 | 33 | 1008.8 |
| 20260504041301 | 72 | 264 | 2.0 | 8.0 | 0.00 | 0.00 | 0.00 | 33 | 1008.7 |
| 20260504040800 | 72 | 348 | 3.0 | 8.0 | 0.00 | 0.00 | 0.00 | 34 | 1008.8 |
| 20260504040302 | 72 | 119 | 2.0 | 5.0 | 0.00 | 0.00 | 0.00 | 36 | 1008.7 |
| 20260504040032 | 72 | 139 | 2.0 | 6.0 | 0.00 | 0.00 | 0.00 | 34 | 1008.7 |
| 20260504035305 | 72 | 134 | 3.0 | 6.0 | 0.00 | 0.00 | 0.00 | 36 | 1008.7 |
| 20260504034801 | 71 | 112 | 3.0 | 5.0 | 0.00 | 0.00 | 0.00 | 37 | 1008.6 |
| 20260504034302 | 71 | 137 | 2.0 | 5.0 | 0.00 | 0.00 | 0.00 | 37 | 1008.7 |
| 20260504033801 | 72 | 138 | 2.0 | 4.0 | 0.00 | 0.00 | 0.00 | 35 | 1008.8 |
| 20260504033303 | 72 | 177 | 2.0 | 3.0 | 0.00 | 0.00 | 0.00 | 34 | 1008.8 |
| 20260504033030 | 72 | 63 | 1.0 | 3.0 | 0.00 | 0.00 | 0.00 | 35 | 1008.7 |
| 20260504032304 | 72 | 61 | 1.0 | 3.0 | 0.00 | 0.00 | 0.00 | 35 | 1008.7 |
| 20260504031802 | 72 | 55 | 1.0 | 3.0 | 0.00 | 0.00 | 0.00 | 36 | 1008.7 |
| 20260504031305 | 72 | 53 | 1.0 | 3.0 | 0.00 | 0.00 | 0.00 | 35 | 1008.7 |
| 20260504030805 | 74 | 52 | 0.0 | 2.0 | 0.00 | 0.00 | 0.00 | 34 | 1008.8 |
| 20260504030533 | 74 | 52 | 1.0 | 3.0 | 0.00 | 0.00 | 0.00 | 33 | 1008.7 |
| 20260504025800 | 74 | 48 | 2.0 | 4.0 | 0.00 | 0.00 | 0.00 | 32 | 1008.8 |
| 20260504025256 | 73 | 110 | 2.0 | 5.0 | 0.00 | 0.00 | 0.00 | 33 | 1008.7 |
| 20260504024750 | 74 | 112 | 3.0 | 5.0 | 0.00 | 0.00 | 0.00 | 33 | 1008.8 |
| 20260504024246 | 74 | 91 | 3.0 | 6.0 | 0.00 | 0.00 | 0.00 | 33 | 1008.8 |
| 20260504023744 | 73 | 91 | 2.0 | 6.0 | 0.00 | 0.00 | 0.00 | 35 | 1008.8 |
| 20260504023242 | 74 | 135 | 2.0 | 5.0 | 0.00 | 0.00 | 0.00 | 35 | 1009.0 |
| 20260504023011 | 74 | 41 | 2.0 | 5.0 | 0.00 | 0.00 | 0.00 | 33 | 1008.8 |
| 20260504022242 | 74 | 87 | 3.0 | 7.0 | 0.00 | 0.00 | 0.00 | 35 | 1008.9 |
| 20260504021742 | 74 | 41 | 3.0 | 7.0 | 0.00 | 0.00 | 0.00 | 34 | 1009.0 |
| 20260504021242 | 74 | 118 | 4.0 | 12.0 | 0.00 | 0.00 | 0.00 | 34 | 1009.0 |
| 20260504020742 | 75 | 49 | 4.0 | 12.0 | 0.00 | 0.00 | 0.00 | 35 | 1009.2 |
| 20260504020242 | 74 | 91 | 4.0 | 11.0 | 0.00 | 0.00 | 0.00 | 34 | 1009.2 |
| 20260504015742 | 74 | 51 | 3.0 | 11.0 | 0.00 | 0.00 | 0.00 | 39 | 1009.3 |
| 20260504015240 | 75 | 46 | 3.0 | 7.0 | 0.00 | 0.00 | 0.00 | 34 | 1009.4 |
| 20260504014741 | 74 | 80 | 3.0 | 7.0 | 0.00 | 0.00 | 0.00 | 33 | 1009.3 |
| 20260504014510 | 74 | 126 | 4.0 | 9.0 | 0.00 | 0.00 | 0.00 | 34 | 1009.3 |
| 20260504013740 | 74 | 93 | 4.0 | 9.0 | 0.00 | 0.00 | 0.00 | 37 | 1009.3 |
| 20260504013242 | 74 | 92 | 3.0 | 7.0 | 0.00 | 0.00 | 0.00 | 36 | 1009.4 |
| 20260504012739 | 75 | 61 | 3.0 | 8.0 | 0.00 | 0.00 | 0.00 | 36 | 1009.4 |
| 20260504012232 | 76 | 65 | 3.0 | 8.0 | 0.00 | 0.00 | 0.00 | 35 | 1009.4 |
| 20260504011732 | 76 | 84 | 3.0 | 8.0 | 0.00 | 0.00 | 0.00 | 34 | 1009.5 |
| 20260504011455 | 75 | 91 | 4.0 | 8.0 | 0.00 | 0.00 | 0.00 | 35 | 1009.5 |
| 20260504010730 | 75 | 71 | 4.0 | 9.0 | 0.00 | 0.00 | 0.00 | 37 | 1009.7 |
| 20260504010230 | 75 | 111 | 3.0 | 9.0 | 0.00 | 0.00 | 0.00 | 35 | 1009.7 |
| 20260504005730 | 76 | 43 | 3.0 | 7.0 | 0.00 | 0.00 | 0.00 | 36 | 1009.7 |
| 20260504005234 | 76 | 100 | 3.0 | 7.0 | 0.00 | 0.00 | 0.00 | 36 | 1009.7 |
| 20260504004733 | 77 | 87 | 2.0 | 7.0 | 0.00 | 0.00 | 0.00 | 34 | 1009.9 |
| 20260504004231 | 75 | 81 | 2.0 | 7.0 | 0.00 | 0.00 | 0.00 | 36 | 1009.8 |
| 20260504003955 | 75 | 106 | 2.0 | 5.0 | 0.00 | 0.00 | 0.00 | 37 | 1009.9 |
| 20260504003454 | 76 | 43 | 2.0 | 6.0 | 0.00 | 0.00 | 0.00 | 36 | 1010.0 |
| 20260504002732 | 75 | 69 | 3.0 | 8.0 | 0.00 | 0.00 | 0.00 | 39 | 1010.0 |
| 20260504002233 | 76 | 104 | 4.0 | 8.0 | 0.00 | 0.00 | 0.00 | 35 | 1010.0 |
| 20260504001731 | 78 | 11 | 3.0 | 7.0 | 0.00 | 0.00 | 0.00 | 37 | 1010.1 |
| 20260504001231 | 77 | 66 | 2.0 | 7.0 | 0.00 | 0.00 | 0.00 | 34 | 1010.2 |
| 20260504000731 | 78 | 58 | 2.0 | 6.0 | 0.00 | 0.00 | 0.00 | 34 | 1010.2 |
| 20260503235951 | 77 | 66 | 2.0 | 8.0 | 0.00 | 0.00 | 0.00 | 37 | 1010.3 |
| 20260503235230 | 75 | 45 | 2.0 | 7.0 | 0.00 | 0.00 | 0.00 | 37 | 1010.4 |
| 20260503234729 | 75 | 59 | 3.0 | 7.0 | 0.00 | 0.00 | 0.00 | 40 | 1010.4 |
| 20260503233729 | 78 | 308 | 2.0 | 6.0 | 0.00 | 0.00 | 0.00 | 35 | 1010.7 |
| 20260503233230 | 79 | 65 | 2.0 | 4.0 | 0.00 | 0.00 | 0.00 | 33 | 1010.7 |
| 20260503232729 | 78 | 141 | 2.0 | 7.0 | 0.00 | 0.00 | 0.00 | 35 | 1010.8 |
| 20260503232231 | 76 | 101 | 2.0 | 7.0 | 0.00 | 0.00 | 0.00 | 38 | 1010.9 |
| 20260503231731 | 75 | 89 | 2.0 | 6.0 | 0.00 | 0.00 | 0.00 | 35 | 1011.0 |
| 20260503231505 | 75 | 328 | 2.0 | 5.0 | 0.00 | 0.00 | 0.00 | 42 | 1011.0 |
| 20260503230730 | 74 | 309 | 2.0 | 4.0 | 0.00 | 0.00 | 0.00 | 41 | 1011.2 |
| 20260503230231 | 74 | 53 | 2.0 | 5.0 | 0.00 | 0.00 | 0.00 | 40 | 1011.1 |
| 20260503225955 | 76 | 358 | 2.0 | 6.0 | 0.00 | 0.00 | 0.00 | 42 | 1011.2 |
| 20260503225230 | 74 | 105 | 3.0 | 7.0 | 0.00 | 0.00 | 0.00 | 40 | 1011.3 |
| 20260503224730 | 74 | 60 | 2.0 | 7.0 | 0.00 | 0.00 | 0.00 | 42 | 1011.4 |
| 20260503224229 | 71 | 60 | 2.0 | 6.0 | 0.00 | 0.00 | 0.00 | 46 | 1011.5 |
| 20260503223729 | 72 | 312 | 3.0 | 9.0 | 0.00 | 0.00 | 0.00 | 47 | 1011.5 |
| 20260503223229 | 73 | 54 | 2.0 | 9.0 | 0.00 | 0.00 | 0.00 | 44 | 1011.6 |
| 20260503222730 | 73 | 62 | 2.0 | 6.0 | 0.00 | 0.00 | 0.00 | 40 | 1011.6 |
| 20260503222230 | 73 | 295 | 2.0 | 5.0 | 0.00 | 0.00 | 0.00 | 41 | 1011.6 |
| 20260503221729 | 72 | 238 | 2.0 | 5.0 | 0.00 | 0.00 | 0.00 | 44 | 1011.7 |
| 20260503221233 | 75 | 61 | 3.0 | 7.0 | 0.00 | 0.00 | 0.00 | 41 | 1011.8 |
| 20260503220728 | 75 | 356 | 3.0 | 7.0 | 0.00 | 0.00 | 0.00 | 44 | 1011.7 |
| 20260503220229 | 73 | 43 | 2.0 | 7.0 | 0.00 | 0.00 | 0.00 | 42 | 1011.8 |
| 20260503215729 | 74 | 58 | 2.0 | 7.0 | 0.00 | 0.00 | 0.00 | 44 | 1012.0 |
| 20260503215230 | 73 | 79 | 3.0 | 6.0 | 0.00 | 0.00 | 0.00 | 46 | 1012.0 |
| 20260503214730 | 74 | 8 | 3.0 | 6.0 | 0.00 | 0.00 | 0.00 | 44 | 1011.9 |
| 20260503214231 | 74 | 110 | 2.0 | 6.0 | 0.00 | 0.00 | 0.00 | 43 | 1012.0 |